Weather in Kem

Russia / Republic of Karelia     64°57′19″N   34°35′54″E
temp.,
°C
wind,
m/s
gust,
m/s
humid.,
%
clouds,
%
prec.,
mm/h
press.,
hPa
HPBL,
m
7 august, sun
sun700:00+18ssw71492100 4.8 1005619
03:00+16sw6128597 4.9 1005721
06:00+15sw7137893 0.0 10051076
09:00+16sw81366100 0.0 10061479
12:00+17wsw8125727 0.1 10091416
15:00+19wsw8104791 0.1 10101905
18:00+18w79504 0.0 10111655
21:00+14sw48633 0.0 1012186
8 august, mon
mon800:00+13wsw5116970 0.0 1014341
03:00+10sw48829 0.0 1015189
06:00+11wsw49825 0.0 1016320
09:00+15wsw57585 0.0 1017809
12:00+19wsw57436 0.0 10181869
15:00+19wsw4642100 0.0 10191873
18:00+17wsw3554100 0.0 1020162
21:00+14nw246799 0.1 102273
9 august, tue
tue900:00+12ne257385 0.0 1023116
03:00+10nne22775 0.0 102417
06:00+11n23767 0.0 102585
09:00+15ne22566 0.0 1025502
12:00+17e224929 0.0 10261133
15:00+17ese445395 0.0 1025481
18:00+17se345590 0.0 1025291
21:00+14sse3564100 0.0 1024122
10 august, wed
wed1000:00+14s3667100 0.0 1024121
03:00+14ssw3667100 0.0 1023122
06:00+14sw376575 0.0 1023191
09:00+18sw4650100 0.0 1022435
12:00+21sw553891 0.0 10201816
15:00+23sw453556 0.0 10192428
18:00+19w3652100 0.0 1018307
21:00+17sw366285 0.0 1017120
11 august, thu
thu1100:00+14ssw41071100 0.0 1016177
03:00+15ssw51263100 0.0 1014337
06:00+15sw61371100 0.0 1013430
09:00+15sw61388100 0.4 1012520
12:00+21wsw71459100 0.0 10101113
15:00+20wsw71465100 0.1 10101207
18:00+17wsw6138847 2.4 10091027
21:00+16wsw511900 2.6 1008490